| time (UTC) | temp C | wind direction | speed KPH | gust KPH | rain 1hr cm | rain 24hr cm | rain mn cm | humidity % | barometer mb |
| 20260505140223 | 12 | 149 | 4.8 | 8.0 | 0.00 | 0.00 | 0.00 | 85 | 1011.7 |
| 20260505130147 | 12 | 98 | 1.6 | 3.2 | 0.00 | 0.00 | 0.00 | 85 | 1011.1 |
| 20260505124637 | 12 | 145 | 3.2 | 4.8 | 0.00 | 0.00 | 0.00 | 85 | 1010.9 |
| 20260505124134 | 12 | 107 | 1.6 | 1.6 | 0.00 | 0.00 | 0.00 | 86 | 1010.9 |
| 20260505123629 | 12 | 136 | 1.6 | 3.2 | 0.00 | 0.00 | 0.00 | 86 | 1011.0 |
| 20260505123126 | 12 | 107 | 1.6 | 1.6 | 0.00 | 0.00 | 0.00 | 86 | 1010.8 |
| 20260505122623 | 12 | 128 | 4.8 | 9.7 | 0.00 | 0.00 | 0.00 | 86 | 1010.9 |
| 20260505122120 | 12 | 178 | 4.8 | 8.0 | 0.00 | 0.00 | 0.00 | 86 | 1010.8 |
| 20260505121617 | 12 | 82 | 1.6 | 1.6 | 0.00 | 0.00 | 0.00 | 86 | 1010.8 |
| 20260505121114 | 12 | 143 | 3.2 | 8.0 | 0.00 | 0.00 | 0.00 | 86 | 1010.6 |
| 20260505120610 | 12 | 151 | 6.4 | 8.0 | 0.00 | 0.00 | 0.00 | 86 | 1010.8 |
| 20260505120106 | 12 | 114 | 8.0 | 11.3 | 0.00 | 0.00 | 0.00 | 86 | 1010.8 |
| 20260505115600 | 12 | 153 | 4.8 | 8.0 | 0.00 | 0.00 | 0.00 | 87 | 1010.7 |
| 20260505115058 | 12 | 113 | 1.6 | 1.6 | 0.00 | 0.00 | 0.00 | 87 | 1010.7 |
| 20260505114555 | 12 | 143 | 6.4 | 9.7 | 0.00 | 0.00 | 0.00 | 87 | 1010.6 |
| 20260505114051 | 12 | 104 | 6.4 | 12.9 | 0.00 | 0.00 | 0.00 | 87 | 1010.7 |
| 20260505113547 | 12 | 170 | 8.0 | 11.3 | 0.00 | 0.00 | 0.00 | 87 | 1010.6 |
| 20260505113044 | 12 | 135 | 4.8 | 4.8 | 0.00 | 0.00 | 0.00 | 87 | 1010.7 |
| 20260505112540 | 12 | 275 | 4.8 | 4.8 | 0.00 | 0.00 | 0.00 | 87 | 1010.7 |
| 20260505112038 | 12 | 169 | 3.2 | 3.2 | 0.00 | 0.00 | 0.00 | 87 | 1010.5 |
| 20260505111532 | 12 | 132 | 3.2 | 4.8 | 0.00 | 0.00 | 0.00 | 87 | 1010.6 |
| 20260505111029 | 12 | 151 | 9.7 | 11.3 | 0.00 | 0.00 | 0.00 | 87 | 1010.4 |
| 20260505110525 | 12 | 188 | 6.4 | 8.0 | 0.00 | 0.00 | 0.00 | 87 | 1010.5 |
| 20260505101958 | 11 | 152 | 6.4 | 9.7 | 0.00 | 0.00 | 0.00 | 88 | 1010.2 |
| 20260505101455 | 11 | 148 | 8.0 | 11.3 | 0.00 | 0.00 | 0.00 | 88 | 1010.1 |
| 20260505100952 | 11 | 59 | 4.8 | 8.0 | 0.00 | 0.00 | 0.00 | 88 | 1010.2 |
| 20260505100449 | 11 | 224 | 3.2 | 9.7 | 0.00 | 0.00 | 0.00 | 88 | 1010.1 |
| 20260505095945 | 11 | 239 | 8.0 | 11.3 | 0.00 | 0.00 | 0.00 | 88 | 1010.2 |
| 20260505095442 | 11 | 135 | 3.2 | 3.2 | 0.00 | 0.00 | 0.00 | 89 | 1009.8 |
| 20260505094938 | 11 | 97 | 3.2 | 3.2 | 0.00 | 0.00 | 0.00 | 89 | 1010.0 |
| 20260505094435 | 11 | 180 | 6.4 | 8.0 | 0.00 | 0.00 | 0.00 | 89 | 1009.9 |
| 20260505093931 | 11 | 208 | 1.6 | 3.2 | 0.00 | 0.00 | 0.00 | 89 | 1010.1 |
| 20260505093428 | 11 | 219 | 1.6 | 4.8 | 0.00 | 0.00 | 0.00 | 89 | 1010.0 |
| 20260505092925 | 11 | 108 | 3.2 | 3.2 | 0.00 | 0.00 | 0.00 | 89 | 1009.8 |
| 20260505092423 | 11 | 136 | 4.8 | 4.8 | 0.00 | 0.00 | 0.00 | 89 | 1009.8 |
| 20260505091920 | 11 | 117 | 3.2 | 4.8 | 0.00 | 0.00 | 0.00 | 89 | 1009.9 |
| 20260505091418 | 11 | 61 | 3.2 | 3.2 | 0.00 | 0.00 | 0.00 | 89 | 1009.6 |
| 20260505090915 | 11 | 146 | 3.2 | 4.8 | 0.00 | 0.00 | 0.00 | 89 | 1009.6 |
| 20260505090413 | 11 | 145 | 0.0 | 1.6 | 0.00 | 0.00 | 0.00 | 89 | 1009.8 |
| 20260505085910 | 11 | 69 | 3.2 | 4.8 | 0.00 | 0.00 | 0.00 | 89 | 1009.9 |
| 20260505085409 | 11 | 141 | 1.6 | 3.2 | 0.00 | 0.00 | 0.00 | 89 | 1009.5 |
| 20260505084906 | 11 | 116 | 1.6 | 3.2 | 0.00 | 0.00 | 0.00 | 89 | 1009.7 |
| 20260505084404 | 11 | 154 | 4.8 | 4.8 | 0.00 | 0.00 | 0.00 | 89 | 1009.6 |
| 20260505083902 | 11 | 171 | 6.4 | 9.7 | 0.00 | 0.00 | 0.00 | 88 | 1009.5 |
| 20260505083359 | 11 | 204 | 3.2 | 4.8 | 0.00 | 0.00 | 0.00 | 88 | 1009.5 |
| 20260505082855 | 11 | 162 | 4.8 | 4.8 | 0.00 | 0.00 | 0.00 | 88 | 1009.4 |
| 20260505082351 | 11 | 215 | 3.2 | 4.8 | 0.00 | 0.00 | 0.00 | 88 | 1009.4 |
| 20260505081849 | 11 | 112 | 4.8 | 8.0 | 0.00 | 0.00 | 0.00 | 88 | 1009.4 |
| 20260505081345 | 11 | 150 | 3.2 | 3.2 | 0.00 | 0.00 | 0.00 | 88 | 1009.4 |
| 20260505080842 | 11 | 229 | 8.0 | 14.5 | 0.00 | 0.00 | 0.00 | 88 | 1009.4 |
| 20260505080338 | 12 | 217 | 4.8 | 8.0 | 0.00 | 0.00 | 0.00 | 88 | 1009.5 |
| 20260505075833 | 12 | 146 | 3.2 | 3.2 | 0.00 | 0.00 | 0.00 | 88 | 1009.4 |
| 20260505075331 | 12 | 128 | 1.6 | 3.2 | 0.00 | 0.00 | 0.00 | 87 | 1009.4 |
| 20260505074828 | 12 | 110 | 1.6 | 3.2 | 0.00 | 0.00 | 0.00 | 87 | 1009.4 |
| 20260505074325 | 12 | 98 | 3.2 | 3.2 | 0.00 | 0.00 | 0.00 | 87 | 1009.6 |
| 20260505073822 | 12 | 151 | 3.2 | 3.2 | 0.00 | 0.00 | 0.00 | 87 | 1009.2 |
| 20260505073320 | 12 | 136 | 3.2 | 3.2 | 0.00 | 0.00 | 0.00 | 87 | 1008.9 |
| 20260505072817 | 12 | 198 | 6.4 | 8.0 | 0.00 | 0.00 | 0.00 | 87 | 1009.0 |
| 20260505072313 | 12 | 207 | 6.4 | 9.7 | 0.00 | 0.00 | 0.00 | 87 | 1009.1 |
| 20260505071809 | 12 | 223 | 4.8 | 8.0 | 0.00 | 0.00 | 0.00 | 86 | 1008.8 |
| 20260505071306 | 12 | 203 | 6.4 | 9.7 | 0.00 | 0.00 | 0.00 | 86 | 1008.7 |
| 20260505070804 | 12 | 197 | 4.8 | 8.0 | 0.00 | 0.00 | 0.00 | 86 | 1009.0 |
| 20260505070300 | 12 | 200 | 4.8 | 9.7 | 0.00 | 0.00 | 0.00 | 86 | 1008.8 |
| 20260505065755 | 12 | 84 | 3.2 | 3.2 | 0.00 | 0.00 | 0.00 | 86 | 1008.8 |
| 20260505065252 | 12 | 167 | 8.0 | 9.7 | 0.00 | 0.00 | 0.00 | 85 | 1008.8 |
| 20260505064749 | 12 | 104 | 3.2 | 4.8 | 0.00 | 0.00 | 0.00 | 85 | 1008.8 |
| 20260505064247 | 12 | 226 | 4.8 | 4.8 | 0.00 | 0.00 | 0.00 | 85 | 1008.6 |
| 20260505063744 | 12 | 126 | 1.6 | 3.2 | 0.00 | 0.00 | 0.00 | 84 | 1008.5 |
| 20260505063240 | 12 | 232 | 6.4 | 8.0 | 0.00 | 0.00 | 0.00 | 84 | 1008.6 |
| 20260505062736 | 12 | 139 | 1.6 | 3.2 | 0.00 | 0.00 | 0.00 | 84 | 1008.6 |
| 20260505062234 | 12 | 128 | 3.2 | 4.8 | 0.00 | 0.00 | 0.00 | 84 | 1008.6 |
| 20260505061731 | 13 | 215 | 4.8 | 8.0 | 0.00 | 0.00 | 0.00 | 83 | 1008.6 |
| 20260505061229 | 13 | 67 | 1.6 | 3.2 | 0.00 | 0.00 | 0.00 | 83 | 1008.5 |
| 20260505060726 | 13 | 133 | 1.6 | 1.6 | 0.00 | 0.00 | 0.00 | 83 | 1008.5 |
| 20260505060223 | 13 | 93 | 1.6 | 1.6 | 0.00 | 0.00 | 0.00 | 83 | 1008.3 |
| 20260505055718 | 13 | 113 | 3.2 | 4.8 | 0.00 | 0.00 | 0.00 | 83 | 1008.5 |
| 20260505055215 | 13 | 187 | 1.6 | 3.2 | 0.00 | 0.00 | 0.00 | 82 | 1008.1 |
| 20260505054713 | 13 | 117 | 1.6 | 3.2 | 0.00 | 0.00 | 0.00 | 82 | 1008.3 |
| 20260505054210 | 13 | 273 | 3.2 | 4.8 | 0.00 | 0.00 | 0.00 | 81 | 1008.1 |
| 20260505053708 | 13 | 197 | 6.4 | 9.7 | 0.00 | 0.00 | 0.00 | 81 | 1008.2 |
| 20260505053204 | 13 | 214 | 3.2 | 8.0 | 0.00 | 0.00 | 0.00 | 80 | 1008.0 |
| 20260505052702 | 13 | 198 | 4.8 | 4.8 | 0.00 | 0.00 | 0.00 | 80 | 1008.1 |
| 20260505052158 | 13 | 164 | 8.0 | 9.7 | 0.00 | 0.00 | 0.00 | 79 | 1008.0 |
| 20260505051656 | 14 | 216 | 8.0 | 11.3 | 0.00 | 0.00 | 0.00 | 79 | 1007.7 |
| 20260505051154 | 14 | 212 | 4.8 | 8.0 | 0.00 | 0.00 | 0.00 | 78 | 1008.0 |
| 20260505050651 | 14 | 163 | 4.8 | 4.8 | 0.00 | 0.00 | 0.00 | 78 | 1008.0 |
| 20260505050149 | 15 | 205 | 8.0 | 11.3 | 0.00 | 0.00 | 0.00 | 77 | 1007.5 |
| 20260505041619 | 16 | 195 | 4.8 | 4.8 | 0.00 | 0.00 | 0.00 | 72 | 1007.1 |
| 20260505041116 | 16 | 200 | 4.8 | 4.8 | 0.00 | 0.00 | 0.00 | 71 | 1007.0 |
| 20260505040613 | 16 | 199 | 8.0 | 12.9 | 0.00 | 0.00 | 0.00 | 70 | 1006.9 |
| 20260505040110 | 17 | 181 | 6.4 | 9.7 | 0.00 | 0.00 | 0.00 | 70 | 1006.8 |
| 20260505035606 | 17 | 22 | 3.2 | 3.2 | 0.00 | 0.00 | 0.00 | 69 | 1006.9 |
| 20260505035103 | 17 | 159 | 4.8 | 4.8 | 0.00 | 0.00 | 0.00 | 68 | 1006.6 |
| 20260505034559 | 17 | 211 | 4.8 | 4.8 | 0.00 | 0.00 | 0.00 | 68 | 1006.8 |
| 20260505034056 | 17 | 206 | 4.8 | 4.8 | 0.00 | 0.00 | 0.00 | 67 | 1006.6 |
| 20260505033553 | 18 | 183 | 4.8 | 4.8 | 0.00 | 0.00 | 0.00 | 66 | 1006.5 |
| 20260505033052 | 18 | 217 | 6.4 | 9.7 | 0.00 | 0.00 | 0.00 | 65 | 1006.6 |
| 20260505032549 | 18 | 205 | 4.8 | 4.8 | 0.00 | 0.00 | 0.00 | 65 | 1006.6 |
| 20260505032045 | 18 | 233 | 4.8 | 4.8 | 0.00 | 0.00 | 0.00 | 64 | 1006.6 |
| 20260505031543 | 19 | 228 | 6.4 | 8.0 | 0.00 | 0.00 | 0.00 | 63 | 1006.3 |
| 20260505031039 | 20 | 187 | 8.0 | 9.7 | 0.00 | 0.00 | 0.00 | 62 | 1006.4 |
| 20260505030536 | 20 | 165 | 3.2 | 3.2 | 0.00 | 0.00 | 0.00 | 61 | 1006.4 |
| 20260505030032 | 20 | 176 | 6.4 | 9.7 | 0.00 | 0.00 | 0.00 | 59 | 1006.3 |
| 20260505025528 | 21 | 210 | 4.8 | 4.8 | 0.00 | 0.00 | 0.00 | 58 | 1006.2 |
| 20260505025027 | 21 | 121 | 3.2 | 4.8 | 0.00 | 0.00 | 0.00 | 57 | 1006.2 |
| 20260505024524 | 21 | 211 | 4.8 | 4.8 | 0.00 | 0.00 | 0.00 | 56 | 1006.2 |
| 20260505024021 | 21 | 152 | 4.8 | 4.8 | 0.00 | 0.00 | 0.00 | 55 | 1006.2 |
| 20260505023518 | 22 | 117 | 3.2 | 4.8 | 0.00 | 0.00 | 0.00 | 54 | 1005.9 |
| 20260505023015 | 22 | 238 | 8.0 | 9.7 | 0.00 | 0.00 | 0.00 | 52 | 1006.0 |
| 20260505022513 | 22 | 124 | 4.8 | 8.0 | 0.00 | 0.00 | 0.00 | 51 | 1006.0 |
| 20260505022010 | 22 | 170 | 3.2 | 3.2 | 0.00 | 0.00 | 0.00 | 49 | 1006.0 |
| 20260505021506 | 23 | 138 | 1.6 | 3.2 | 0.00 | 0.00 | 0.00 | 49 | 1005.9 |
| 20260505021003 | 23 | 211 | 8.0 | 8.0 | 0.00 | 0.00 | 0.00 | 49 | 1006.0 |
| 20260505020457 | 23 | 217 | 4.8 | 8.0 | 0.00 | 0.00 | 0.00 | 49 | 1006.0 |
| 20260505015954 | 23 | 115 | 1.6 | 3.2 | 0.00 | 0.00 | 0.00 | 49 | 1006.1 |
| 20260505015452 | 23 | 139 | 3.2 | 3.2 | 0.00 | 0.00 | 0.00 | 49 | 1005.9 |
| 20260505014949 | 23 | 223 | 4.8 | 9.7 | 0.00 | 0.00 | 0.00 | 49 | 1006.2 |
| 20260505014446 | 23 | 153 | 3.2 | 4.8 | 0.00 | 0.00 | 0.00 | 49 | 1005.8 |
| 20260505013943 | 24 | 228 | 4.8 | 8.0 | 0.00 | 0.00 | 0.00 | 48 | 1006.2 |
| 20260505013440 | 24 | 176 | 4.8 | 4.8 | 0.00 | 0.00 | 0.00 | 48 | 1006.1 |
| 20260505012937 | 24 | 94 | 1.6 | 3.2 | 0.00 | 0.00 | 0.00 | 49 | 1006.2 |
| 20260505012435 | 24 | 123 | 6.4 | 9.7 | 0.00 | 0.00 | 0.00 | 49 | 1006.0 |
| 20260505011931 | 24 | 235 | 8.0 | 9.7 | 0.00 | 0.00 | 0.00 | 48 | 1006.0 |
| 20260505011427 | 24 | 199 | 4.8 | 4.8 | 0.00 | 0.00 | 0.00 | 48 | 1006.1 |
| 20260505010925 | 24 | 181 | 4.8 | 8.0 | 0.00 | 0.00 | 0.00 | 48 | 1006.1 |
| 20260505010420 | 25 | 302 | 4.8 | 4.8 | 0.00 | 0.00 | 0.00 | 47 | 1006.1 |
| 20260505005916 | 25 | 194 | 4.8 | 8.0 | 0.00 | 0.00 | 0.00 | 46 | 1006.3 |
| 20260505005413 | 25 | 116 | 1.6 | 1.6 | 0.00 | 0.00 | 0.00 | 48 | 1006.2 |
| 20260505004911 | 25 | 87 | 3.2 | 4.8 | 0.00 | 0.00 | 0.00 | 47 | 1006.2 |
| 20260505004407 | 25 | 207 | 6.4 | 8.0 | 0.00 | 0.00 | 0.00 | 46 | 1006.1 |
| 20260505003904 | 24 | 164 | 6.4 | 9.7 | 0.00 | 0.00 | 0.00 | 47 | 1006.3 |
| 20260505003401 | 25 | 230 | 4.8 | 8.0 | 0.00 | 0.00 | 0.00 | 47 | 1006.2 |
| 20260505002857 | 25 | 195 | 8.0 | 9.7 | 0.00 | 0.00 | 0.00 | 45 | 1006.2 |
| 20260505002354 | 25 | 185 | 3.2 | 3.2 | 0.00 | 0.00 | 0.00 | 46 | 1006.4 |
| 20260505001853 | 25 | 235 | 3.2 | 4.8 | 0.00 | 0.00 | 0.00 | 44 | 1006.2 |
| 20260505001349 | 25 | 132 | 6.4 | 9.7 | 0.00 | 0.00 | 0.00 | 44 | 1006.3 |
| 20260505000847 | 25 | 179 | 6.4 | 8.0 | 0.00 | 0.00 | 0.00 | 43 | 1006.2 |
| 20260505000345 | 25 | 140 | 1.6 | 3.2 | 0.00 | 0.00 | 0.00 | 42 | 1006.2 |
| 20260504235841 | 25 | 81 | 1.6 | 1.6 | 0.00 | 0.00 | 0.00 | 44 | 1006.5 |
| 20260504235338 | 25 | 267 | 3.2 | 4.8 | 0.00 | 0.00 | 0.00 | 43 | 1006.2 |
| 20260504234834 | 26 | 159 | 3.2 | 3.2 | 0.00 | 0.00 | 0.00 | 41 | 1006.5 |
| 20260504234332 | 25 | 6 | 1.6 | 1.6 | 0.00 | 0.00 | 0.00 | 42 | 1006.4 |
| 20260504233829 | 25 | 194 | 4.8 | 4.8 | 0.00 | 0.00 | 0.00 | 42 | 1006.4 |
| 20260504233324 | 25 | 187 | 3.2 | 3.2 | 0.00 | 0.00 | 0.00 | 42 | 1006.4 |
| 20260504232821 | 25 | 88 | 3.2 | 4.8 | 0.00 | 0.00 | 0.00 | 42 | 1006.4 |
| 20260504232318 | 25 | 168 | 4.8 | 4.8 | 0.00 | 0.00 | 0.00 | 40 | 1006.5 |
| 20260504231815 | 25 | 123 | 1.6 | 3.2 | 0.00 | 0.00 | 0.00 | 41 | 1006.1 |
| 20260504231312 | 25 | 312 | 6.4 | 9.7 | 0.00 | 0.00 | 0.00 | 40 | 1006.4 |
| 20260504230808 | 25 | 225 | 4.8 | 4.8 | 0.00 | 0.00 | 0.00 | 39 | 1006.3 |
| 20260504230306 | 25 | 173 | 6.4 | 8.0 | 0.00 | 0.00 | 0.00 | 40 | 1006.4 |
| 20260504225805 | 25 | 200 | 6.4 | 8.0 | 0.00 | 0.00 | 0.00 | 38 | 1006.3 |
| 20260504225301 | 25 | 72 | 1.6 | 3.2 | 0.00 | 0.00 | 0.00 | 40 | 1006.4 |
| 20260504224758 | 25 | 155 | 3.2 | 8.0 | 0.00 | 0.00 | 0.00 | 41 | 1006.7 |
| 20260504224255 | 26 | 160 | 6.4 | 8.0 | 0.00 | 0.00 | 0.00 | 40 | 1006.8 |
| 20260504223751 | 26 | 77 | 1.6 | 1.6 | 0.00 | 0.00 | 0.00 | 41 | 1006.8 |
| 20260504223247 | 26 | 86 | 0.0 | 1.6 | 0.00 | 0.00 | 0.00 | 42 | 1007.0 |
| 20260504222744 | 25 | 74 | 1.6 | 1.6 | 0.00 | 0.00 | 0.00 | 43 | 1006.9 |
| 20260504222240 | 25 | 76 | 1.6 | 1.6 | 0.00 | 0.00 | 0.00 | 43 | 1007.1 |
| 20260504221738 | 25 | 294 | 4.8 | 4.8 | 0.00 | 0.00 | 0.00 | 43 | 1007.1 |
| 20260504221235 | 25 | 324 | 3.2 | 3.2 | 0.00 | 0.00 | 0.00 | 44 | 1007.0 |
| 20260504220732 | 25 | 72 | 1.6 | 3.2 | 0.00 | 0.00 | 0.00 | 44 | 1007.0 |
| 20260504220229 | 24 | 281 | 4.8 | 4.8 | 0.00 | 0.00 | 0.00 | 44 | 1007.1 |
| 20260504215727 | 23 | 297 | 4.8 | 8.0 | 0.00 | 0.00 | 0.00 | 45 | 1007.4 |
| 20260504215223 | 24 | 181 | 8.0 | 9.7 | 0.00 | 0.00 | 0.00 | 45 | 1007.2 |
| 20260504214719 | 24 | 264 | 6.4 | 9.7 | 0.00 | 0.00 | 0.00 | 45 | 1007.3 |
| 20260504214216 | 23 | 305 | 6.4 | 8.0 | 0.00 | 0.00 | 0.00 | 46 | 1007.3 |
| 20260504213712 | 24 | 309 | 6.4 | 8.0 | 0.00 | 0.00 | 0.00 | 45 | 1007.2 |
| 20260504213209 | 24 | 245 | 3.2 | 8.0 | 0.00 | 0.00 | 0.00 | 46 | 1007.2 |
| 20260504212706 | 23 | 191 | 3.2 | 3.2 | 0.00 | 0.00 | 0.00 | 47 | 1007.4 |
| 20260504212203 | 23 | 241 | 4.8 | 8.0 | 0.00 | 0.00 | 0.00 | 46 | 1007.4 |
| 20260504211700 | 23 | 359 | 4.8 | 8.0 | 0.00 | 0.00 | 0.00 | 46 | 1007.3 |
| 20260504211156 | 23 | 255 | 3.2 | 4.8 | 0.00 | 0.00 | 0.00 | 48 | 1007.2 |
| 20260504210654 | 23 | 235 | 6.4 | 8.0 | 0.00 | 0.00 | 0.00 | 48 | 1007.3 |
| 20260504210150 | 23 | 27 | 4.8 | 4.8 | 0.00 | 0.00 | 0.00 | 48 | 1007.4 |
| 20260504205648 | 23 | 100 | 1.6 | 1.6 | 0.00 | 0.00 | 0.00 | 48 | 1007.6 |
| 20260504205144 | 23 | 218 | 3.2 | 4.8 | 0.00 | 0.00 | 0.00 | 48 | 1007.6 |
| 20260504204643 | 23 | 221 | 4.8 | 8.0 | 0.00 | 0.00 | 0.00 | 49 | 1007.6 |
| 20260504204142 | 23 | 193 | 4.8 | 8.0 | 0.00 | 0.00 | 0.00 | 48 | 1007.3 |
| 20260504203640 | 23 | 174 | 4.8 | 8.0 | 0.00 | 0.00 | 0.00 | 48 | 1007.5 |
| 20260504203137 | 22 | 160 | 3.2 | 3.2 | 0.00 | 0.00 | 0.00 | 51 | 1007.6 |
| 20260504202637 | 22 | 241 | 4.8 | 8.0 | 0.00 | 0.00 | 0.00 | 51 | 1007.6 |
| 20260504202134 | 22 | 224 | 8.0 | 9.7 | 0.00 | 0.00 | 0.00 | 51 | 1007.6 |
| 20260504201631 | 22 | 149 | 4.8 | 8.0 | 0.00 | 0.00 | 0.00 | 51 | 1007.6 |
| 20260504201129 | 22 | 168 | 3.2 | 3.2 | 0.00 | 0.00 | 0.00 | 50 | 1007.5 |
| 20260504200626 | 22 | 75 | 3.2 | 3.2 | 0.00 | 0.00 | 0.00 | 51 | 1007.4 |
| 20260504200122 | 22 | 153 | 4.8 | 8.0 | 0.00 | 0.00 | 0.00 | 52 | 1007.5 |
| 20260504195618 | 22 | 176 | 4.8 | 4.8 | 0.00 | 0.00 | 0.00 | 52 | 1007.4 |
| 20260504195115 | 23 | 305 | 6.4 | 9.7 | 0.00 | 0.00 | 0.00 | 51 | 1007.7 |
| 20260504194612 | 22 | 239 | 4.8 | 4.8 | 0.00 | 0.00 | 0.00 | 52 | 1007.6 |
| 20260504194107 | 22 | 257 | 3.2 | 4.8 | 0.00 | 0.00 | 0.00 | 52 | 1007.5 |
| 20260504193604 | 22 | 225 | 4.8 | 4.8 | 0.00 | 0.00 | 0.00 | 51 | 1007.7 |
| 20260504193102 | 22 | 183 | 6.4 | 11.3 | 0.00 | 0.00 | 0.00 | 51 | 1008.2 |
| 20260504192600 | 22 | 288 | 4.8 | 4.8 | 0.00 | 0.00 | 0.00 | 53 | 1007.6 |
| 20260504192058 | 22 | 287 | 4.8 | 8.0 | 0.00 | 0.00 | 0.00 | 53 | 1007.5 |
| 20260504191556 | 22 | 208 | 3.2 | 4.8 | 0.00 | 0.00 | 0.00 | 51 | 1007.4 |
| 20260504191052 | 22 | 278 | 4.8 | 4.8 | 0.00 | 0.00 | 0.00 | 52 | 1008.1 |
| 20260504190548 | 22 | 243 | 4.8 | 8.0 | 0.00 | 0.00 | 0.00 | 52 | 1008.0 |
| 20260504190044 | 22 | 214 | 4.8 | 8.0 | 0.00 | 0.00 | 0.00 | 50 | 1007.9 |
| 20260504185542 | 23 | 275 | 4.8 | 4.8 | 0.00 | 0.00 | 0.00 | 49 | 1008.0 |
| 20260504185038 | 22 | 158 | 4.8 | 8.0 | 0.00 | 0.00 | 0.00 | 48 | 1007.9 |
| 20260504184534 | 22 | 133 | 4.8 | 4.8 | 0.00 | 0.00 | 0.00 | 48 | 1007.7 |
| 20260504184029 | 22 | 148 | 0.0 | 1.6 | 0.00 | 0.00 | 0.00 | 47 | 1008.0 |
| 20260504183527 | 22 | 112 | 1.6 | 1.6 | 0.00 | 0.00 | 0.00 | 50 | 1007.9 |
| 20260504183025 | 22 | 112 | 3.2 | 3.2 | 0.00 | 0.00 | 0.00 | 48 | 1007.6 |
| 20260504182521 | 22 | 116 | 1.6 | 1.6 | 0.00 | 0.00 | 0.00 | 49 | 1008.1 |
| 20260504182019 | 22 | 98 | 3.2 | 4.8 | 0.00 | 0.00 | 0.00 | 50 | 1008.1 |
| 20260504181515 | 21 | 106 | 1.6 | 1.6 | 0.00 | 0.00 | 0.00 | 52 | 1008.2 |
| 20260504181014 | 21 | 312 | 3.2 | 3.2 | 0.00 | 0.00 | 0.00 | 53 | 1007.9 |
| 20260504180513 | 21 | 303 | 3.2 | 3.2 | 0.00 | 0.00 | 0.00 | 52 | 1008.1 |
| 20260504180011 | 20 | 138 | 3.2 | 3.2 | 0.00 | 0.00 | 0.00 | 55 | 1007.7 |
| 20260504175508 | 20 | 304 | 1.6 | 3.2 | 0.00 | 0.00 | 0.00 | 55 | 1008.2 |
| 20260504175005 | 20 | 279 | 6.4 | 8.0 | 0.00 | 0.00 | 0.00 | 54 | 1008.1 |
| 20260504174502 | 21 | 277 | 6.4 | 8.0 | 0.00 | 0.00 | 0.00 | 52 | 1008.1 |
| 20260504173959 | 21 | 109 | 1.6 | 3.2 | 0.00 | 0.00 | 0.00 | 50 | 1007.7 |
| 20260504173456 | 21 | 20 | 3.2 | 3.2 | 0.00 | 0.00 | 0.00 | 51 | 1007.9 |
| 20260504172954 | 20 | 315 | 3.2 | 4.8 | 0.00 | 0.00 | 0.00 | 53 | 1008.0 |
| 20260504172449 | 20 | 344 | 1.6 | 3.2 | 0.00 | 0.00 | 0.00 | 54 | 1007.9 |
| 20260504171946 | 20 | 138 | 1.6 | 3.2 | 0.00 | 0.00 | 0.00 | 54 | 1007.9 |
| 20260504171443 | 20 | 91 | 1.6 | 1.6 | 0.00 | 0.00 | 0.00 | 53 | 1008.3 |
| 20260504170940 | 20 | 339 | 3.2 | 3.2 | 0.00 | 0.00 | 0.00 | 52 | 1007.7 |
| 20260504170436 | 20 | 75 | 3.2 | 3.2 | 0.00 | 0.00 | 0.00 | 52 | 1008.0 |
| 20260504160356 | 19 | 73 | 1.6 | 1.6 | 0.00 | 0.00 | 0.00 | 53 | 1007.5 |
| 20260504150820 | 15 | 25 | 1.6 | 1.6 | 0.00 | 0.00 | 0.00 | 68 | 1007.1 |
| 20260504150316 | 15 | 338 | 3.2 | 3.2 | 0.00 | 0.00 | 0.00 | 67 | 1007.2 |